Vorticity
12 12 12 12 11 11 11 12 16 19 21 22 20 17 14 11 9 8 7 5 4 4 7 15 27 37 44 45 41 37 34 33 33 34 35 38 40 43 45 46 46 45 44 42 39 37 36 36 38 39 40 38 34 30 27 24 22 21 20 19 18 17 15 13 11 10 9 9 9
12 12 12 12 11 10 11 13 16 19 21 22 19 16 12 10 9 7 6 4 3 6 12 23 35 42 43 39 34 30 29 29 29 30 32 35 38 41 43 44 44 43 42 40 38 36 35 35 37 38 38 37 33 30 26 24 22 21 20 19 18 17 15 13 12 11 10 9 9
11 12 12 12 11 10 11 13 17 19 21 21 18 15 11 9 8 7 5 4 4 9 18 31 40 43 41 35 29 26 25 25 25 26 29 32 36 39 41 43 43 43 42 41 39 37 36 36 37 37 37 35 32 29 26 23 22 21 20 19 18 16 15 14 13 11 10 9 9
12 12 12 11 10 10 12 14 17 19 20 19 16 13 11 9 7 6 4 3 5 13 25 38 42 42 39 33 26 22 22 22 20 21 23 29 32 34 37 39 41 43 43 43 41 39 38 38 38 37 36 34 31 28 26 23 22 21 19 18 17 16 15 14 13 12 11 10 9
13 13 12 11 10 10 12 14 17 19 20 18 15 13 10 8 7 5 4 3 8 18 31 42 42 40 37 32 22 19 19 18 15 15 19 26 27 28 30 32 36 39 42 44 44 43 41 40 39 37 35 33 30 28 25 23 21 20 19 18 17 16 16 15 14 13 11 11 10
13 13 12 10 9 10 12 15 18 19 19 18 15 12 9 7 6 5 4 5 11 22 35 44 41 38 34 29 21 18 17 14 10 12 17 24 23 22 23 25 29 34 38 42 44 45 44 43 40 37 35 33 30 27 24 22 20 19 18 17 17 17 16 15 15 13 12 11 10
12 12 11 10 9 10 12 15 18 19 19 17 14 11 9 7 6 5 5 5 13 26 38 45 41 37 32 26 20 17 16 13 10 12 16 20 19 17 17 19 23 28 32 37 40 42 44 43 40 38 35 33 30 26 23 20 19 18 17 17 18 17 16 16 15 14 13 12 11
12 12 11 9 9 10 12 16 18 20 19 17 13 11 8 7 6 5 5 6 16 29 40 45 42 37 30 24 20 18 17 14 12 12 14 15 15 13 13 14 19 23 28 31 35 37 39 40 39 37 35 32 28 24 21 19 18 18 17 18 19 18 17 16 16 14 13 12 12
12 12 10 9 9 10 13 16 19 19 18 16 13 10 8 7 6 5 5 7 18 30 40 44 42 36 30 24 21 19 17 16 13 9 8 10 11 10 9 10 15 19 24 28 31 33 34 36 36 35 32 28 24 22 20 19 18 18 18 19 19 18 17 17 16 15 14 13 13
12 11 10 9 10 11 13 16 19 19 18 15 12 9 8 6 6 5 6 8 19 31 41 44 41 36 30 25 22 20 19 18 12 6 3 7 11 9 6 7 12 16 21 25 28 30 31 31 31 30 27 23 21 20 20 20 19 19 19 19 19 19 18 18 16 15 14 13 13
11 11 10 9 9 11 13 17 19 19 17 14 11 9 7 6 6 5 6 8 19 31 40 43 41 36 31 26 23 21 20 19 12 6 4 9 13 9 5 5 9 13 18 22 26 28 29 28 27 25 23 20 19 19 20 20 20 20 20 19 19 18 18 18 16 15 14 14 13
11 11 10 9 9 11 13 17 18 18 17 14 11 9 7 6 6 5 6 8 19 30 39 43 41 37 32 27 23 22 21 20 14 9 8 13 15 10 4 3 7 11 15 19 24 27 28 26 24 22 21 20 18 18 18 19 19 19 19 19 19 18 18 17 16 15 14 13 13
11 11 10 9 9 11 13 17 18 18 16 14 11 9 7 6 6 5 6 8 18 29 38 44 42 38 33 27 24 22 21 20 16 13 12 15 17 11 4 2 5 9 12 16 21 25 27 26 24 22 21 20 19 17 16 16 17 17 17 17 18 18 17 17 16 15 14 13 13
12 11 10 9 9 11 13 16 18 17 16 14 11 9 7 6 6 6 6 8 16 27 37 43 42 39 34 29 25 22 21 20 18 16 15 16 16 12 6 2 4 7 10 12 17 22 25 26 24 22 20 18 17 17 16 17 17 17 16 15 17 17 17 17 16 15 14 14 13
12 11 10 8 9 10 13 16 17 17 16 14 11 9 8 6 6 6 6 8 14 25 35 43 43 40 35 30 26 24 22 21 19 18 16 15 15 12 8 3 5 6 8 9 12 16 20 23 23 21 18 15 14 13 14 15 16 16 15 14 14 15 15 16 16 15 15 14 14
12 11 10 9 9 10 13 15 17 17 16 14 11 9 8 7 6 6 6 7 13 22 33 42 43 40 36 32 28 25 23 21 21 19 17 15 14 12 9 5 7 8 8 7 8 11 15 19 20 20 19 16 13 12 11 12 12 13 13 12 13 13 14 14 14 14 14 14 14
12 11 10 8 8 10 12 15 16 16 16 14 12 10 8 7 6 6 6 7 11 20 31 41 43 41 36 32 29 26 24 22 21 20 18 15 12 10 8 5 7 9 11 10 7 8 11 15 18 19 20 18 16 14 13 12 12 12 12 12 13 14 14 14 14 14 14 14 14
12 11 10 8 8 9 11 14 16 16 15 14 12 10 8 7 6 6 6 6 10 18 28 38 43 42 38 32 29 27 25 22 22 21 20 16 12 8 5 2 3 7 12 15 10 8 8 12 15 17 18 18 18 17 17 16 15 14 14 14 15 15 15 14 14 14 13 13 13
12 11 10 9 8 9 11 13 15 16 15 14 12 10 8 7 6 6 6 6 9 15 24 35 42 43 40 34 30 27 25 23 22 21 21 18 13 8 4 0 -1 2 8 19 16 11 8 10 12 13 14 15 17 18 19 19 19 18 18 18 18 17 17 16 15 14 14 13 13
11 11 10 9 8 9 10 12 15 15 15 14 12 10 9 7 7 6 6 6 8 13 20 31 40 43 42 37 32 28 25 23 21 21 21 20 16 10 5 0 -2 -2 3 16 20 16 10 9 11 11 11 10 11 13 15 16 18 19 20 20 20 20 20 19 17 16 14 13 12
12 11 10 8 8 8 10 12 14 15 15 14 13 11 9 7 7 6 6 6 7 10 17 27 37 43 44 40 35 30 26 23 21 20 20 20 17 13 7 2 -2 -3 -0 10 19 19 14 11 12 11 10 7 6 6 7 10 12 14 16 18 19 19 19 19 18 16 15 14 12
12 11 10 9 8 8 9 11 13 14 15 14 13 11 9 8 7 7 6 6 7 9 14 22 32 40 44 43 38 33 28 24 22 21 20 20 19 16 10 4 0 -2 -1 6 15 17 16 14 14 13 11 8 5 4 4 5 7 9 11 13 15 16 17 17 16 16 15 14 13
11 11 10 9 8 8 9 10 12 13 14 14 13 12 10 8 7 7 6 6 7 8 12 18 27 36 42 44 41 36 31 27 24 22 20 19 20 18 15 8 3 -0 -0 4 10 13 14 14 16 16 15 12 8 5 3 3 4 6 8 10 11 13 14 15 15 14 14 14 13
11 11 10 9 8 8 8 9 11 13 14 14 13 12 11 9 8 7 7 6 6 7 10 14 23 31 38 43 42 39 34 30 26 24 22 20 20 19 18 13 6 1 -1 2 6 8 10 11 13 15 15 15 13 10 6 3 3 4 5 7 9 10 12 13 13 13 13 12 12
11 10 10 9 9 8 8 9 10 12 13 14 14 13 11 10 8 7 7 7 6 7 8 12 18 26 33 40 42 41 37 32 29 26 24 22 20 20 19 19 12 6 2 2 4 4 5 6 9 10 12 13 13 12 10 7 5 4 5 6 8 10 11 12 12 12 12 11 11
11 11 10 10 9 8 8 8 9 11 12 13 13 13 12 10 9 8 7 7 6 6 7 10 15 22 29 35 39 40 39 36 31 28 25 23 21 20 19 20 19 14 8 6 6 4 2 1 3 6 8 10 9 10 10 10 9 8 8 8 9 10 10 11 11 11 11 11 11
11 11 10 9 9 8 8 8 8 10 11 13 13 13 12 11 9 8 7 7 6 6 7 8 13 19 25 31 36 39 40 38 34 31 27 24 22 20 19 18 19 17 14 12 10 7 4 1 -0 1 4 8 9 9 9 11 12 13 13 12 11 11 11 11 11 11 11 11 11
11 11 10 10 9 9 8 7 8 9 11 12 13 13 13 12 10 9 8 7 7 6 6 7 10 15 21 28 33 36 38 39 37 34 30 26 24 22 20 18 16 13 12 15 16 15 12 7 3 0 0 3 6 9 12 14 16 17 17 16 14 12 11 11 11 11 11 12 12
11 11 10 10 10 9 8 7 8 9 10 11 12 13 13 12 11 10 8 7 7 7 6 6 7 12 18 25 30 33 36 38 38 36 33 30 26 25 24 24 20 9 2 7 17 21 22 19 14 8 4 1 3 5 9 13 16 18 19 18 16 14 13 12 11 11 11 12 13
11 11 11 11 10 9 8 8 7 8 9 10 12 13 13 13 12 10 9 8 8 7 6 6 6 10 14 20 25 30 34 36 37 37 36 34 30 28 27 30 29 12 -4 4 15 23 26 27 25 20 15 9 7 6 7 9 12 15 17 18 17 16 14 13 12 12 12 12 13
11 11 11 11 10 9 9 8 7 7 8 9 11 12 13 13 12 11 10 9 8 8 7 6 7 8 11 15 21 26 30 33 35 36 36 36 33 30 29 30 34 16 -4 -1 10 20 26 29 28 26 23 19 16 14 13 12 13 14 16 17 17 16 15 14 13 13 13 13 14
11 11 11 11 11 10 9 8 7 7 7 8 10 12 13 13 13 12 11 9 9 8 7 7 7 8 9 12 17 22 27 30 32 34 35 36 34 32 30 29 31 23 10 -2 2 11 22 31 28 25 23 22 20 20 19 19 18 18 18 17 17 16 15 14 13 13 13 13 14
11 11 11 11 11 10 10 9 8 7 7 8 9 11 12 13 13 12 11 10 9 8 8 8 7 7 8 10 13 18 23 27 30 31 33 34 34 33 32 30 30 28 23 12 3 6 17 33 27 22 20 19 20 21 21 21 21 21 21 19 18 17 16 14 13 13 13 13 14
11 11 11 11 11 11 10 9 8 7 7 7 9 10 11 12 13 13 12 11 10 9 9 8 8 8 8 8 11 15 19 24 27 29 31 32 32 32 31 31 31 31 30 25 15 10 15 32 26 21 18 17 18 20 21 21 22 22 21 21 20 18 16 14 13 13 13 13 14
11 11 11 11 11 11 11 10 9 8 7 7 8 9 11 12 13 13 12 11 10 10 9 9 8 8 8 8 9 12 16 21 25 28 29 30 30 30 30 29 29 30 30 28 23 17 16 26 27 24 20 18 19 19 20 21 21 21 21 22 21 20 18 16 14 13 13 13 14
11 11 11 11 11 11 11 10 9 8 8 7 7 8 10 12 13 13 12 12 11 10 10 9 9 8 8 7 8 10 13 17 22 26 28 29 29 29 28 27 26 26 27 28 25 19 16 20 26 27 24 21 20 19 19 20 20 21 21 21 21 21 20 18 16 15 14 14 15
11 11 11 11 11 11 11 11 10 9 8 7 7 8 9 11 12 13 13 12 11 11 10 10 9 9 8 8 7 8 10 13 18 23 27 30 30 30 29 27 25 24 24 25 24 21 19 20 25 27 26 23 21 20 20 19 19 19 20 20 20 20 20 19 18 17 16 16 17
10 11 11 11 11 11 11 11 11 10 9 8 7 8 9 10 11 12 13 13 12 11 10 10 10 10 9 9 8 7 7 9 14 18 24 28 30 31 30 29 26 24 22 22 22 21 21 21 24 25 25 23 21 21 21 21 20 19 19 19 20 20 20 20 19 19 18 18 19
10 11 11 11 11 11 11 11 11 10 9 8 7 7 8 9 11 12 12 13 12 11 10 10 10 10 10 10 9 8 7 7 10 13 18 24 28 30 31 31 29 26 24 21 21 20 20 19 21 22 22 21 21 20 21 21 21 20 19 19 19 20 21 21 21 21 21 21 21
10 10 11 11 11 11 11 11 11 10 10 9 8 8 8 9 10 11 12 13 12 12 11 10 10 10 10 11 10 10 9 8 8 10 13 18 23 27 29 31 30 29 27 24 22 20 19 18 18 18 20 20 19 19 19 19 20 20 20 19 19 20 21 22 23 23 23 23 24
10 10 11 11 11 11 11 11 11 10 10 9 9 8 8 8 9 10 11 12 12 12 11 10 10 10 10 11 11 11 10 9 9 9 10 12 17 22 26 28 29 29 29 27 24 22 21 20 18 18 18 19 19 18 17 18 19 19 20 20 20 20 21 22 23 24 25 25 25
Height
5521 5515 5509 5503 5497 5491 5485 5479 5473 5467 5461 5455 5450 5444 5439 5434 5428 5422 5415 5409 5402 5395 5386 5377 5368 5359 5349 5342 5335 5329 5324 5318 5313 5307 5302 5297 5291 5287 5283 5279 5277 5275 5274 5273 5273 5273 5274 5274 5276 5278 5280 5283 5286 5289 5293 5297 5301 5305 5309 5313 5316 5318 5320 5322 5323 5325 5327 5329 5331
5519 5513 5506 5500 5494 5488 5482 5476 5470 5464 5459 5453 5447 5442 5436 5430 5424 5418 5412 5404 5397 5389 5380 5371 5361 5353 5345 5338 5331 5325 5320 5315 5311 5306 5301 5296 5291 5286 5282 5279 5276 5273 5272 5270 5270 5270 5270 5271 5272 5274 5276 5279 5282 5286 5290 5294 5298 5302 5306 5309 5312 5314 5316 5317 5319 5321 5324 5326 5328
5517 5510 5504 5498 5492 5486 5480 5474 5468 5462 5456 5450 5445 5439 5433 5428 5421 5415 5408 5401 5393 5384 5375 5365 5356 5349 5342 5335 5329 5323 5318 5314 5310 5306 5301 5296 5291 5286 5282 5279 5275 5273 5271 5270 5269 5269 5269 5269 5270 5272 5274 5277 5280 5283 5287 5291 5295 5300 5303 5306 5309 5311 5312 5314 5315 5318 5320 5323 5325
5514 5508 5502 5496 5490 5484 5479 5473 5466 5460 5454 5449 5443 5437 5431 5425 5419 5412 5405 5397 5389 5379 5370 5361 5353 5346 5339 5333 5327 5322 5318 5314 5310 5306 5302 5297 5292 5287 5283 5279 5276 5274 5271 5270 5269 5268 5268 5268 5269 5270 5272 5275 5278 5282 5286 5290 5294 5298 5301 5304 5305 5307 5308 5310 5313 5315 5318 5320 5322
5512 5506 5500 5494 5489 5483 5477 5471 5465 5459 5453 5447 5441 5434 5429 5422 5416 5409 5402 5394 5385 5376 5367 5358 5350 5344 5338 5332 5327 5322 5318 5314 5311 5307 5303 5298 5293 5289 5284 5281 5278 5275 5272 5271 5269 5269 5268 5268 5269 5270 5272 5274 5278 5281 5285 5289 5293 5296 5299 5301 5302 5304 5305 5308 5310 5313 5315 5317 5319
5511 5504 5499 5493 5487 5481 5475 5469 5464 5457 5451 5445 5439 5433 5427 5420 5414 5407 5399 5391 5383 5374 5364 5356 5349 5342 5337 5332 5327 5323 5319 5315 5311 5308 5304 5299 5294 5290 5286 5283 5279 5277 5274 5272 5271 5270 5269 5269 5270 5271 5273 5275 5279 5282 5286 5289 5292 5295 5297 5298 5299 5301 5304 5306 5309 5311 5313 5315 5318
5509 5504 5498 5492 5486 5480 5474 5468 5462 5456 5449 5443 5437 5431 5425 5419 5412 5405 5398 5389 5380 5371 5363 5355 5348 5342 5336 5332 5328 5323 5319 5316 5312 5308 5304 5300 5296 5292 5289 5285 5282 5279 5277 5274 5273 5272 5271 5271 5272 5273 5275 5277 5280 5284 5287 5289 5291 5293 5295 5296 5298 5300 5302 5305 5307 5309 5311 5314 5316
5508 5502 5496 5490 5485 5479 5473 5467 5460 5454 5448 5442 5436 5430 5424 5417 5410 5404 5396 5387 5379 5370 5362 5354 5347 5341 5336 5332 5328 5324 5320 5316 5312 5309 5305 5302 5299 5295 5291 5288 5285 5282 5279 5277 5275 5274 5274 5274 5274 5276 5277 5279 5282 5285 5287 5289 5290 5292 5293 5295 5297 5299 5301 5303 5305 5308 5310 5312 5314
5506 5501 5495 5489 5484 5478 5472 5465 5459 5453 5447 5440 5434 5428 5422 5415 5409 5402 5395 5387 5378 5369 5361 5354 5347 5342 5337 5332 5328 5324 5320 5317 5313 5310 5307 5304 5301 5298 5294 5291 5288 5285 5283 5280 5279 5277 5277 5277 5277 5278 5280 5282 5284 5285 5287 5288 5290 5291 5293 5294 5297 5299 5300 5302 5305 5307 5309 5310 5311
5505 5500 5494 5488 5482 5477 5470 5464 5458 5452 5446 5439 5433 5427 5421 5414 5408 5401 5394 5386 5377 5368 5360 5354 5347 5342 5337 5333 5329 5325 5321 5318 5314 5311 5309 5306 5304 5300 5297 5294 5291 5288 5286 5284 5282 5280 5280 5279 5280 5281 5282 5283 5284 5286 5287 5289 5290 5292 5293 5295 5297 5298 5300 5302 5304 5305 5306 5307 5309
5504 5499 5493 5487 5482 5475 5469 5463 5457 5451 5444 5439 5432 5426 5420 5414 5407 5400 5393 5384 5376 5368 5360 5354 5348 5342 5337 5333 5329 5325 5322 5319 5316 5313 5310 5308 5306 5303 5300 5297 5294 5291 5289 5287 5285 5284 5283 5282 5282 5283 5284 5285 5286 5287 5289 5289 5291 5292 5294 5295 5297 5298 5300 5301 5302 5303 5304 5305 5307
5503 5497 5492 5486 5480 5474 5469 5462 5456 5450 5444 5438 5432 5426 5419 5413 5406 5399 5392 5384 5376 5368 5360 5354 5347 5342 5337 5333 5329 5326 5323 5319 5317 5314 5312 5310 5308 5305 5303 5300 5297 5294 5292 5290 5288 5287 5286 5285 5285 5286 5286 5287 5288 5289 5290 5291 5291 5293 5294 5295 5297 5298 5299 5300 5300 5302 5303 5304 5305
5502 5496 5491 5485 5479 5474 5468 5461 5455 5449 5443 5437 5431 5425 5419 5412 5405 5399 5391 5384 5376 5368 5361 5354 5347 5342 5337 5334 5330 5326 5323 5320 5318 5316 5314 5311 5309 5307 5305 5302 5300 5297 5294 5293 5291 5290 5289 5289 5288 5288 5289 5289 5289 5290 5291 5292 5293 5294 5295 5296 5297 5298 5298 5299 5300 5301 5302 5303 5304
5501 5495 5490 5484 5479 5473 5467 5461 5454 5449 5443 5436 5430 5424 5418 5412 5405 5398 5391 5383 5376 5368 5361 5354 5347 5342 5338 5334 5330 5327 5324 5322 5319 5317 5315 5313 5311 5309 5307 5304 5302 5300 5297 5295 5294 5293 5292 5291 5291 5291 5291 5291 5292 5292 5293 5293 5294 5295 5296 5296 5297 5297 5298 5298 5299 5300 5301 5303 5304
5500 5494 5489 5483 5478 5472 5466 5460 5454 5448 5442 5436 5430 5424 5417 5411 5404 5398 5391 5383 5376 5368 5361 5354 5348 5343 5339 5334 5331 5328 5325 5323 5320 5318 5316 5314 5312 5310 5309 5307 5304 5303 5300 5298 5297 5295 5294 5294 5294 5293 5293 5293 5293 5294 5294 5294 5295 5295 5296 5296 5296 5297 5297 5298 5299 5300 5301 5302 5303
5499 5494 5488 5483 5477 5471 5466 5459 5454 5447 5441 5435 5429 5423 5417 5410 5404 5397 5390 5384 5376 5369 5361 5355 5349 5344 5339 5335 5332 5329 5326 5324 5321 5319 5317 5315 5314 5312 5310 5308 5307 5305 5303 5301 5299 5298 5297 5296 5296 5295 5295 5295 5295 5295 5295 5295 5295 5296 5296 5296 5296 5297 5297 5298 5299 5299 5300 5301 5302
5499 5493 5488 5482 5477 5471 5465 5459 5453 5447 5441 5435 5429 5423 5417 5410 5404 5397 5391 5384 5377 5369 5362 5356 5349 5344 5340 5336 5333 5330 5327 5325 5322 5320 5318 5316 5314 5313 5311 5310 5308 5307 5306 5304 5302 5300 5299 5298 5298 5297 5297 5297 5297 5296 5296 5296 5296 5296 5296 5296 5297 5297 5297 5298 5298 5299 5299 5300 5301
5498 5493 5488 5482 5476 5471 5465 5459 5453 5447 5440 5434 5429 5423 5417 5410 5404 5398 5391 5384 5378 5371 5364 5357 5350 5345 5340 5336 5333 5330 5328 5326 5323 5321 5319 5317 5315 5314 5312 5311 5309 5309 5308 5306 5304 5303 5301 5300 5299 5299 5298 5298 5298 5298 5297 5297 5297 5297 5297 5297 5297 5297 5297 5297 5298 5298 5299 5300 5301
5498 5492 5487 5482 5476 5470 5464 5459 5453 5446 5440 5434 5429 5423 5417 5411 5404 5398 5392 5385 5379 5372 5365 5358 5352 5346 5341 5337 5334 5331 5329 5326 5324 5322 5319 5318 5316 5314 5313 5312 5310 5309 5309 5307 5306 5304 5303 5302 5301 5301 5300 5299 5299 5298 5298 5297 5297 5297 5297 5297 5297 5297 5297 5297 5297 5298 5299 5299 5300
5497 5492 5487 5482 5476 5470 5464 5458 5453 5446 5440 5434 5429 5423 5417 5411 5405 5399 5393 5386 5380 5373 5366 5359 5353 5347 5342 5338 5334 5331 5329 5327 5325 5323 5321 5319 5317 5315 5314 5313 5311 5310 5309 5309 5307 5306 5304 5303 5303 5302 5301 5300 5300 5299 5299 5298 5298 5297 5297 5297 5297 5297 5297 5297 5297 5297 5298 5298 5298
5497 5492 5487 5481 5476 5470 5464 5458 5452 5446 5440 5434 5429 5423 5417 5412 5406 5399 5394 5387 5381 5374 5368 5361 5355 5349 5344 5339 5335 5332 5329 5327 5325 5323 5321 5319 5318 5316 5314 5313 5312 5311 5310 5309 5308 5306 5305 5304 5304 5303 5302 5302 5301 5300 5300 5299 5299 5298 5297 5297 5297 5296 5296 5296 5296 5296 5296 5297 5297
5497 5492 5487 5481 5476 5470 5464 5458 5452 5447 5441 5435 5429 5424 5418 5412 5407 5401 5394 5388 5382 5375 5369 5363 5356 5350 5345 5340 5336 5333 5330 5327 5325 5324 5322 5320 5318 5317 5315 5314 5313 5312 5311 5310 5309 5307 5306 5305 5304 5304 5303 5302 5302 5301 5300 5300 5299 5299 5298 5297 5297 5296 5296 5296 5296 5296 5296 5296 5296
5497 5492 5487 5481 5476 5470 5464 5459 5453 5447 5441 5435 5430 5424 5419 5413 5408 5402 5396 5389 5384 5377 5371 5364 5358 5352 5347 5342 5338 5334 5331 5328 5326 5324 5322 5321 5319 5318 5316 5314 5313 5312 5311 5310 5309 5307 5306 5305 5304 5304 5303 5303 5302 5301 5301 5300 5299 5299 5298 5298 5297 5297 5296 5296 5295 5295 5295 5295 5295
5497 5492 5487 5481 5476 5470 5465 5459 5453 5448 5442 5437 5431 5425 5420 5414 5409 5403 5397 5391 5385 5379 5373 5366 5360 5354 5348 5343 5339 5335 5332 5329 5326 5324 5323 5321 5320 5318 5317 5315 5314 5312 5311 5310 5308 5307 5306 5305 5304 5304 5303 5302 5302 5301 5301 5300 5299 5299 5298 5298 5297 5296 5296 5295 5295 5295 5294 5294 5294
5497 5492 5487 5481 5476 5471 5465 5459 5454 5449 5443 5438 5432 5427 5421 5415 5410 5404 5399 5393 5387 5381 5375 5369 5362 5356 5350 5345 5340 5336 5333 5330 5327 5325 5323 5321 5320 5319 5317 5316 5314 5313 5311 5309 5308 5307 5306 5305 5304 5304 5303 5302 5302 5301 5300 5300 5299 5299 5298 5298 5297 5296 5296 5295 5294 5294 5294 5294 5294
5497 5492 5487 5482 5477 5471 5466 5461 5455 5450 5444 5439 5433 5428 5422 5417 5411 5405 5400 5394 5389 5383 5377 5371 5365 5359 5353 5347 5342 5338 5334 5331 5328 5325 5323 5321 5320 5319 5317 5316 5315 5314 5312 5310 5309 5308 5306 5305 5304 5304 5303 5302 5302 5301 5300 5299 5299 5298 5298 5297 5296 5296 5295 5295 5294 5294 5294 5294 5294
5497 5492 5487 5482 5477 5472 5467 5462 5456 5451 5445 5439 5434 5429 5423 5418 5412 5407 5401 5396 5391 5385 5379 5374 5368 5362 5356 5350 5344 5340 5336 5332 5329 5326 5324 5322 5320 5318 5317 5315 5314 5314 5313 5311 5310 5309 5307 5306 5305 5304 5303 5302 5301 5301 5300 5299 5298 5298 5297 5296 5296 5295 5295 5294 5294 5294 5293 5293 5293
5498 5493 5488 5483 5478 5473 5468 5462 5457 5452 5446 5441 5435 5430 5424 5419 5414 5409 5403 5398 5393 5387 5382 5376 5371 5364 5358 5352 5347 5342 5338 5334 5330 5327 5325 5322 5320 5318 5317 5315 5314 5314 5313 5311 5310 5309 5308 5307 5305 5304 5303 5302 5301 5300 5299 5298 5297 5297 5296 5295 5295 5294 5294 5294 5293 5293 5293 5292 5292
5498 5493 5488 5483 5478 5473 5468 5463 5458 5453 5448 5442 5436 5431 5426 5421 5415 5410 5405 5400 5394 5389 5384 5379 5373 5367 5361 5355 5350 5345 5340 5336 5332 5329 5326 5323 5321 5319 5317 5315 5314 5314 5314 5312 5309 5308 5307 5306 5305 5304 5303 5302 5300 5299 5298 5297 5296 5296 5295 5294 5294 5294 5293 5293 5292 5292 5292 5291 5291
5499 5494 5489 5484 5479 5474 5469 5464 5459 5454 5449 5443 5438 5432 5427 5422 5417 5412 5407 5402 5397 5391 5386 5380 5375 5369 5364 5358 5353 5348 5343 5339 5334 5331 5327 5324 5322 5320 5318 5316 5314 5315 5316 5314 5309 5307 5306 5305 5304 5303 5302 5301 5300 5298 5297 5296 5295 5295 5294 5294 5293 5293 5292 5292 5291 5291 5290 5290 5290
5499 5494 5489 5484 5479 5475 5470 5465 5460 5455 5449 5444 5439 5434 5429 5424 5419 5414 5409 5404 5399 5394 5388 5383 5377 5372 5366 5361 5355 5350 5345 5341 5337 5333 5329 5326 5324 5321 5319 5317 5315 5315 5316 5316 5311 5307 5305 5304 5303 5302 5301 5300 5299 5298 5296 5295 5294 5294 5293 5292 5292 5291 5291 5290 5290 5289 5289 5289 5289
5500 5495 5490 5485 5480 5475 5471 5466 5461 5456 5451 5446 5440 5435 5430 5425 5420 5416 5411 5406 5401 5396 5390 5385 5380 5374 5369 5363 5358 5353 5348 5343 5339 5335 5332 5328 5325 5322 5320 5318 5316 5314 5314 5314 5312 5308 5305 5304 5303 5301 5300 5299 5298 5297 5295 5294 5294 5293 5292 5291 5290 5290 5289 5289 5289 5288 5288 5288 5288
5500 5495 5491 5486 5481 5476 5472 5467 5462 5457 5452 5447 5442 5437 5432 5427 5422 5417 5412 5408 5403 5398 5393 5388 5383 5377 5372 5366 5361 5356 5350 5346 5341 5338 5334 5330 5327 5324 5321 5319 5317 5315 5313 5312 5312 5309 5306 5304 5302 5301 5300 5299 5297 5296 5295 5294 5293 5292 5291 5290 5289 5289 5288 5288 5287 5287 5287 5287 5287
5501 5496 5492 5487 5482 5478 5473 5468 5463 5458 5453 5449 5444 5439 5434 5429 5423 5419 5414 5409 5405 5400 5395 5390 5385 5380 5374 5369 5364 5359 5354 5349 5344 5339 5336 5332 5329 5326 5323 5320 5318 5316 5314 5312 5311 5310 5307 5304 5302 5301 5299 5298 5297 5295 5294 5293 5292 5291 5290 5289 5289 5288 5287 5287 5286 5286 5286 5286 5286
5502 5497 5492 5488 5483 5479 5474 5469 5464 5459 5455 5450 5445 5440 5435 5430 5425 5420 5416 5411 5406 5402 5397 5392 5387 5382 5377 5372 5367 5362 5357 5352 5347 5342 5338 5334 5331 5328 5325 5322 5319 5317 5315 5313 5311 5310 5308 5305 5302 5301 5299 5298 5296 5295 5294 5293 5291 5290 5289 5289 5288 5287 5287 5286 5285 5285 5285 5285 5285
5502 5498 5493 5489 5484 5479 5475 5470 5465 5461 5456 5451 5447 5442 5437 5432 5427 5422 5418 5413 5408 5404 5399 5394 5389 5384 5379 5374 5370 5365 5360 5356 5351 5346 5341 5337 5333 5329 5326 5324 5321 5318 5316 5314 5312 5310 5308 5306 5303 5301 5300 5298 5296 5295 5294 5293 5291 5290 5289 5289 5288 5287 5286 5285 5285 5284 5284 5284 5284
5503 5498 5494 5489 5485 5480 5476 5471 5467 5462 5458 5453 5448 5444 5439 5434 5429 5424 5419 5414 5410 5406 5401 5397 5392 5387 5382 5378 5373 5368 5363 5359 5354 5349 5344 5340 5336 5332 5329 5325 5322 5320 5317 5315 5313 5310 5309 5307 5304 5302 5300 5299 5297 5295 5294 5293 5292 5291 5289 5289 5288 5287 5286 5285 5284 5284 5284 5284 5284
5503 5499 5494 5490 5486 5481 5477 5472 5468 5464 5459 5454 5450 5445 5440 5435 5430 5425 5421 5416 5412 5408 5403 5399 5394 5389 5385 5380 5375 5370 5365 5361 5356 5352 5348 5344 5339 5335 5332 5328 5325 5322 5319 5316 5314 5312 5309 5308 5306 5304 5301 5299 5298 5296 5295 5294 5292 5291 5290 5289 5288 5287 5286 5285 5284 5284 5284 5284 5284
5503 5499 5495 5490 5486 5482 5478 5473 5469 5465 5460 5456 5451 5446 5441 5436 5432 5427 5423 5418 5414 5409 5405 5400 5396 5392 5387 5382 5378 5373 5368 5363 5359 5354 5350 5346 5342 5339 5335 5331 5327 5324 5321 5318 5316 5313 5311 5309 5307 5305 5302 5300 5299 5297 5295 5294 5293 5292 5290 5289 5288 5287 5286 5285 5284 5284 5284 5284 5284
5504 5499 5495 5491 5487 5483 5478 5474 5470 5466 5462 5457 5453 5448 5443 5439 5434 5429 5424 5419 5415 5411 5406 5402 5398 5394 5389 5385 5380 5375 5370 5366 5361 5356 5352 5348 5344 5340 5337 5333 5330 5327 5324 5321 5318 5315 5312 5310 5309 5306 5303 5301 5299 5297 5296 5294 5293 5292 5291 5290 5289 5287 5286 5285 5284 5284 5284 5284 5284
5504 5499 5495 5491 5487 5483 5479 5475 5471 5467 5463 5459 5454 5450 5445 5440 5435 5430 5426 5421 5417 5413 5408 5404 5400 5395 5391 5387 5383 5378 5373 5369 5364 5359 5354 5349 5345 5341 5338 5334 5331 5329 5326 5324 5321 5318 5315 5312 5309 5307 5305 5303 5300 5298 5296 5295 5294 5292 5291 5290 5289 5288 5287 5286 5285 5284 5284 5284 5284